PDA6118 UKWW-LGSK

Flight info

Callsign PDA6118
Flight time 1h 38m
Altitude 34000
Route NIROV N743 LAVDA DCT POGAV DCT RONBU DCT RODIP DCT IBIDI
Aircraft A321/M-SDE3FGHIJ4RWY/LB1

Departure

Time 2026-05-06 18:13
Airport Vinnytsia/Gavyryshivka International Airport (UKWW)

Arrival

Time 2026-05-06 19:51
Airport Skiathos Island National Airport (LGSK)
Time Latitude Longitude Altitude Speed Heading
2026-05-06 17:40 49.24291 28.60614 970 ft 0 kts 317°
2026-05-06 18:07 49.24294 28.60609 979 ft 2 kts 317°
2026-05-06 18:08 49.24309 28.60602 984 ft 2 kts
2026-05-06 18:08 49.24323 28.60640 974 ft 8 kts 104°
2026-05-06 18:08 49.24308 28.60740 979 ft 10 kts 39°
2026-05-06 18:08 49.24353 28.60813 977 ft 0 kts 50°
2026-05-06 18:09 49.24360 28.60826 980 ft 4 kts 47°
2026-05-06 18:09 49.24395 28.60884 979 ft 10 kts 48°
2026-05-06 18:09 49.24456 28.60988 977 ft 16 kts 48°
2026-05-06 18:09 49.24560 28.60962 967 ft 20 kts 319°
2026-05-06 18:10 49.24679 28.60800 967 ft 25 kts 318°
2026-05-06 18:10 49.24820 28.60608 976 ft 29 kts 318°
2026-05-06 18:10 49.24973 28.60400 978 ft 26 kts 319°
2026-05-06 18:10 49.25049 28.60239 971 ft 12 kts 284°
2026-05-06 18:11 49.25074 28.60248 966 ft 4 kts 78°
2026-05-06 18:11 49.25066 28.60272 984 ft 0 kts 139°
2026-05-06 18:12 49.25065 28.60272 984 ft 1 kts 139°
2026-05-06 18:12 49.24919 28.60472 981 ft 65 kts 138°
2026-05-06 18:12 49.24410 28.61167 975 ft 129 kts 138°
2026-05-06 18:12 49.23597 28.62262 1023 ft 177 kts 139°
2026-05-06 18:13 49.22658 28.63608 1556 ft 185 kts 141°
2026-05-06 18:13 49.21679 28.64876 2142 ft 186 kts 146°
2026-05-06 18:13 49.20645 28.66108 2575 ft 194 kts 147°
2026-05-06 18:13 49.19523 28.67420 2736 ft 214 kts 147°
2026-05-06 18:14 49.18274 28.68813 2944 ft 227 kts 149°
2026-05-06 18:14 49.16985 28.70009 3066 ft 206 kts 156°
2026-05-06 18:14 49.15676 28.70995 3280 ft 220 kts 158°
2026-05-06 18:14 49.14218 28.72028 3527 ft 242 kts 158°
2026-05-06 18:15 49.12636 28.73147 3960 ft 256 kts 158°
2026-05-06 18:15 49.11008 28.74316 4608 ft 261 kts 157°
2026-05-06 18:15 49.09354 28.75522 5271 ft 265 kts 156°
2026-05-06 18:15 49.07684 28.76748 5965 ft 268 kts 156°
2026-05-06 18:16 49.05993 28.77995 6633 ft 271 kts 155°
2026-05-06 18:16 49.04285 28.79257 7283 ft 275 kts 155°
2026-05-06 18:16 49.02558 28.80533 7920 ft 278 kts 155°
2026-05-06 18:16 49.00803 28.81833 8587 ft 281 kts 155°
2026-05-06 18:17 48.99035 28.83140 9254 ft 284 kts 155°
2026-05-06 18:17 48.97191 28.84240 9876 ft 288 kts 166°
2026-05-06 18:17 48.95181 28.84675 10236 ft 301 kts 179°
2026-05-06 18:17 48.93022 28.84444 10373 ft 322 kts 185°
2026-05-06 18:18 48.90723 28.84100 10547 ft 340 kts 185°
2026-05-06 18:18 48.88347 28.83744 11026 ft 346 kts 185°
2026-05-06 18:18 48.85935 28.83388 11586 ft 350 kts 185°
2026-05-06 18:18 48.83531 28.83041 12182 ft 353 kts 185°
2026-05-06 18:19 48.81095 28.82694 12760 ft 357 kts 185°
2026-05-06 18:19 48.78609 28.82341 13314 ft 361 kts 185°
2026-05-06 18:19 48.76099 28.81982 13881 ft 364 kts 185°
2026-05-06 18:19 48.73566 28.81622 14418 ft 367 kts 185°
2026-05-06 18:20 48.71010 28.81264 14969 ft 370 kts 185°
2026-05-06 18:20 48.68443 28.80906 15534 ft 372 kts 185°
2026-05-06 18:20 48.65861 28.80543 16096 ft 374 kts 185°
2026-05-06 18:20 48.63261 28.80173 16643 ft 377 kts 185°
2026-05-06 18:21 48.60641 28.79802 17203 ft 379 kts 184°
2026-05-06 18:21 48.58007 28.79429 17735 ft 382 kts 185°
2026-05-06 18:21 48.55353 28.79053 18270 ft 385 kts 184°
2026-05-06 18:21 48.52679 28.78680 18729 ft 387 kts 184°
2026-05-06 18:22 48.50004 28.78309 19181 ft 390 kts 184°
2026-05-06 18:22 48.47292 28.77928 19633 ft 393 kts 185°
2026-05-06 18:22 48.44561 28.77541 20103 ft 396 kts 184°
2026-05-06 18:22 48.41801 28.77145 20528 ft 400 kts 185°
2026-05-06 18:23 48.39020 28.76742 20985 ft 403 kts 185°
2026-05-06 18:23 48.36216 28.76343 21423 ft 406 kts 184°
2026-05-06 18:23 48.33395 28.75949 21865 ft 409 kts 184°
2026-05-06 18:23 48.30554 28.75555 22297 ft 411 kts 184°
2026-05-06 18:24 48.27693 28.75164 22708 ft 414 kts 184°
2026-05-06 18:24 48.24815 28.74766 23125 ft 417 kts 184°
2026-05-06 18:24 48.21924 28.74364 23534 ft 419 kts 184°
2026-05-06 18:24 48.19006 28.73957 23872 ft 422 kts 184°
2026-05-06 18:25 48.16080 28.73551 24202 ft 424 kts 184°
2026-05-06 18:25 48.14128 28.73279 24416 ft 426 kts 185°
2026-05-06 18:25 48.11198 28.72510 24721 ft 430 kts 194°
2026-05-06 18:25 48.08311 28.71280 25022 ft 433 kts 195°
2026-05-06 18:26 48.05403 28.70023 25304 ft 436 kts 195°
2026-05-06 18:26 48.01533 28.68348 25741 ft 439 kts 195°
2026-05-06 18:26 47.98591 28.67081 26053 ft 442 kts 195°
2026-05-06 18:26 47.96591 28.66220 26248 ft 443 kts 196°
2026-05-06 18:27 47.93617 28.64942 26570 ft 446 kts 196°
2026-05-06 18:27 47.90628 28.63661 26880 ft 448 kts 196°
2026-05-06 18:27 47.87627 28.62384 27206 ft 450 kts 196°
2026-05-06 18:27 47.84608 28.61106 27472 ft 453 kts 195°
2026-05-06 18:28 47.81565 28.59818 27724 ft 456 kts 196°
2026-05-06 18:28 47.78507 28.58519 28014 ft 459 kts 196°
2026-05-06 18:28 47.75428 28.57209 28297 ft 461 kts 196°
2026-05-06 18:28 47.72343 28.55893 28569 ft 463 kts 196°
2026-05-06 18:29 47.69236 28.54572 28851 ft 465 kts 196°
2026-05-06 18:29 47.66114 28.53253 29114 ft 468 kts 196°
2026-05-06 18:29 47.63018 28.51948 29357 ft 470 kts 196°
2026-05-06 18:29 47.59864 28.50614 29622 ft 472 kts 196°
2026-05-06 18:30 47.56695 28.49276 29895 ft 475 kts 196°
2026-05-06 18:30 47.53510 28.47934 30153 ft 477 kts 196°
2026-05-06 18:30 47.50322 28.46592 30462 ft 476 kts 196°
2026-05-06 18:30 47.47138 28.45251 30811 ft 475 kts 197°
2026-05-06 18:31 47.43961 28.43918 31164 ft 474 kts 197°
2026-05-06 18:31 47.40790 28.42589 31518 ft 473 kts 197°
2026-05-06 18:31 47.37634 28.41267 31858 ft 472 kts 197°
2026-05-06 18:31 47.34478 28.39945 32202 ft 471 kts 197°
2026-05-06 18:32 47.31332 28.38631 32537 ft 470 kts 197°
2026-05-06 18:32 47.28191 28.37323 32875 ft 469 kts 197°
2026-05-06 18:32 47.25057 28.36020 33197 ft 467 kts 197°
2026-05-06 18:32 47.21929 28.34725 33524 ft 466 kts 197°
2026-05-06 18:33 47.18811 28.33433 33846 ft 465 kts 197°
2026-05-06 18:33 47.15697 28.32140 33997 ft 464 kts 197°
2026-05-06 18:33 47.09496 28.29561 34024 ft 463 kts 197°
2026-05-06 18:34 47.03306 28.26993 34016 ft 462 kts 197°
2026-05-06 18:34 46.97114 28.24446 34024 ft 462 kts 197°
2026-05-06 18:35 46.90923 28.21903 34024 ft 462 kts 197°
2026-05-06 18:35 46.84732 28.19356 34030 ft 462 kts 197°
2026-05-06 18:36 46.78548 28.16778 34025 ft 462 kts 201°
2026-05-06 18:36 46.72654 28.13125 34032 ft 461 kts 205°
2026-05-06 18:37 46.66786 28.09350 34041 ft 461 kts 205°
2026-05-06 18:37 46.60913 28.05581 34036 ft 461 kts 206°
2026-05-06 18:38 46.55040 28.01827 34040 ft 461 kts 206°
2026-05-06 18:38 46.49210 27.98109 34050 ft 461 kts 206°
2026-05-06 18:39 46.43334 27.94373 34045 ft 461 kts 206°
2026-05-06 18:40 46.34509 27.88780 34040 ft 462 kts 206°
2026-05-06 18:40 46.28621 27.85057 34052 ft 462 kts 206°
2026-05-06 18:41 46.22719 27.81329 34048 ft 463 kts 206°
2026-05-06 18:41 46.16809 27.77610 34053 ft 464 kts 206°
2026-05-06 18:42 46.10894 27.73896 34053 ft 464 kts 206°
2026-05-06 18:42 46.04978 27.70185 34041 ft 464 kts 206°
2026-05-06 18:43 45.99052 27.66485 34045 ft 464 kts 206°
2026-05-06 18:43 45.93125 27.62787 34056 ft 465 kts 206°
2026-05-06 18:44 45.87192 27.59097 34050 ft 465 kts 206°
2026-05-06 18:44 45.81259 27.55415 34040 ft 465 kts 206°
2026-05-06 18:45 45.75317 27.51733 34049 ft 465 kts 206°
2026-05-06 18:45 45.69414 27.48081 34052 ft 466 kts 206°
2026-05-06 18:46 45.63458 27.44407 34043 ft 466 kts 206°
2026-05-06 18:46 45.57499 27.40743 34042 ft 467 kts 206°
2026-05-06 18:47 45.51534 27.37086 34053 ft 467 kts 206°
2026-05-06 18:47 45.45560 27.33429 34056 ft 467 kts 206°
2026-05-06 18:48 45.39581 27.29773 34064 ft 468 kts 206°
2026-05-06 18:48 45.33597 27.26132 34064 ft 468 kts 206°
2026-05-06 18:49 45.27608 27.22497 34051 ft 468 kts 206°
2026-05-06 18:49 45.21626 27.18870 34069 ft 468 kts 206°
2026-05-06 18:50 45.15637 27.15242 34068 ft 468 kts 206°
2026-05-06 18:50 45.09642 27.11609 34061 ft 468 kts 206°
2026-05-06 18:51 45.03643 27.07994 34054 ft 469 kts 206°
2026-05-06 18:51 44.97636 27.04396 34051 ft 469 kts 206°
2026-05-06 18:52 44.91618 27.00792 34038 ft 470 kts 207°
2026-05-06 18:52 44.85598 26.97186 34043 ft 470 kts 207°
2026-05-06 18:53 44.79565 26.93583 34047 ft 471 kts 206°
2026-05-06 18:53 44.73566 26.90006 34041 ft 472 kts 207°
2026-05-06 18:54 44.67521 26.86417 34059 ft 472 kts 207°
2026-05-06 18:54 44.61470 26.82833 34063 ft 472 kts 207°
2026-05-06 18:55 44.55422 26.79250 34069 ft 472 kts 207°
2026-05-06 18:55 44.49380 26.75686 34060 ft 471 kts 207°
2026-05-06 18:56 44.43349 26.72135 34060 ft 470 kts 207°
2026-05-06 18:56 44.37322 26.68594 34056 ft 470 kts 207°
2026-05-06 18:57 44.31292 26.65063 34059 ft 470 kts 207°
2026-05-06 18:57 44.25265 26.61541 34046 ft 470 kts 207°
2026-05-06 18:58 44.19278 26.58040 34051 ft 470 kts 207°
2026-05-06 18:58 44.13251 26.54539 34024 ft 470 kts 207°
2026-05-06 18:59 44.07218 26.51046 34020 ft 469 kts 207°
2026-05-06 18:59 44.01267 26.47341 34026 ft 467 kts 211°
2026-05-06 19:00 43.95531 26.43151 34027 ft 465 kts 213°
2026-05-06 19:00 43.89840 26.38881 34034 ft 465 kts 213°
2026-05-06 19:01 43.84090 26.34732 34040 ft 466 kts 212°
2026-05-06 19:01 43.78312 26.30667 34022 ft 466 kts 211°
2026-05-06 19:02 43.72536 26.26600 34028 ft 466 kts 211°
2026-05-06 19:02 43.66771 26.22522 34028 ft 466 kts 211°
2026-05-06 19:03 43.61000 26.18440 34027 ft 466 kts 211°
2026-05-06 19:03 43.55229 26.14380 34030 ft 466 kts 211°
2026-05-06 19:04 43.49451 26.10325 34034 ft 466 kts 211°
2026-05-06 19:04 43.43674 26.06274 34023 ft 466 kts 211°
2026-05-06 19:05 43.37900 26.02232 34025 ft 466 kts 211°
2026-05-06 19:05 43.32121 25.98187 34021 ft 466 kts 211°
2026-05-06 19:06 43.26339 25.94165 34017 ft 466 kts 211°
2026-05-06 19:06 43.20560 25.90146 34041 ft 466 kts 211°
2026-05-06 19:07 43.14783 25.86130 34046 ft 466 kts 211°
2026-05-06 19:07 43.08995 25.82125 34045 ft 466 kts 212°
2026-05-06 19:08 43.03251 25.78161 34044 ft 466 kts 212°
2026-05-06 19:08 42.97472 25.74172 34029 ft 466 kts 211°
2026-05-06 19:09 42.91649 25.70169 34044 ft 465 kts 211°
2026-05-06 19:09 42.85916 25.66241 34043 ft 464 kts 212°
2026-05-06 19:10 42.80145 25.62283 34016 ft 464 kts 211°
2026-05-06 19:10 42.74342 25.58312 34039 ft 463 kts 211°
2026-05-06 19:11 42.68591 25.54393 34050 ft 462 kts 211°
2026-05-06 19:11 42.62878 25.50511 34038 ft 462 kts 211°
2026-05-06 19:12 42.57142 25.46616 34050 ft 460 kts 211°
2026-05-06 19:12 42.51421 25.42733 34047 ft 459 kts 211°
2026-05-06 19:13 42.45707 25.38869 34031 ft 459 kts 211°
2026-05-06 19:13 42.40001 25.35015 34023 ft 458 kts 211°
2026-05-06 19:14 42.34293 25.31171 34028 ft 458 kts 211°
2026-05-06 19:14 42.28580 25.27337 34014 ft 458 kts 211°
2026-05-06 19:15 42.22876 25.23506 34026 ft 458 kts 211°
2026-05-06 19:15 42.18140 25.20330 34028 ft 458 kts 211°
2026-05-06 19:16 42.12435 25.16520 34019 ft 458 kts 211°
2026-05-06 19:16 42.06724 25.12714 34028 ft 458 kts 211°
2026-05-06 19:17 42.01019 25.08912 34035 ft 458 kts 211°
2026-05-06 19:17 41.95310 25.05111 34041 ft 458 kts 211°
2026-05-06 19:18 41.89597 25.01325 34044 ft 458 kts 211°
2026-05-06 19:18 41.83888 24.97552 34051 ft 457 kts 210°
2026-05-06 19:19 41.78186 24.93791 34057 ft 457 kts 211°
2026-05-06 19:19 41.72494 24.90029 34075 ft 456 kts 211°
2026-05-06 19:20 41.66801 24.86276 34086 ft 456 kts 211°
2026-05-06 19:20 41.61111 24.82548 34081 ft 456 kts 210°
2026-05-06 19:21 41.55414 24.78820 34086 ft 456 kts 210°
2026-05-06 19:21 41.49721 24.75097 34093 ft 456 kts 210°
2026-05-06 19:22 41.44045 24.71386 34089 ft 456 kts 210°
2026-05-06 19:22 41.38327 24.67716 34088 ft 457 kts 209°
2026-05-06 19:23 41.32557 24.64174 34077 ft 457 kts 209°
2026-05-06 19:23 41.26773 24.60661 34078 ft 457 kts 209°
2026-05-06 19:24 41.21003 24.57127 34071 ft 457 kts 210°
2026-05-06 19:24 41.15235 24.53583 34072 ft 457 kts 209°
2026-05-06 19:25 41.09462 24.50048 34064 ft 457 kts 209°
2026-05-06 19:25 41.03685 24.46521 34062 ft 457 kts 209°
2026-05-06 19:26 40.97943 24.43020 34059 ft 457 kts 209°
2026-05-06 19:26 40.92162 24.39505 34067 ft 458 kts 209°
2026-05-06 19:27 40.86377 24.35992 34069 ft 457 kts 209°
2026-05-06 19:27 40.80603 24.32482 34080 ft 457 kts 209°
2026-05-06 19:28 40.74830 24.28989 34069 ft 456 kts 209°
2026-05-06 19:28 40.69062 24.25498 33704 ft 457 kts 209°
2026-05-06 19:28 40.66149 24.23739 32919 ft 461 kts 209°
2026-05-06 19:29 40.63246 24.21992 32444 ft 456 kts 209°
2026-05-06 19:29 40.60369 24.20262 31920 ft 453 kts 209°
2026-05-06 19:29 40.57511 24.18544 31424 ft 450 kts 209°
2026-05-06 19:29 40.54670 24.16841 30922 ft 447 kts 209°
2026-05-06 19:30 40.51847 24.15150 30422 ft 444 kts 210°
2026-05-06 19:30 40.49043 24.13471 29894 ft 442 kts 210°
2026-05-06 19:30 40.46259 24.11804 29403 ft 437 kts 210°
2026-05-06 19:30 40.43509 24.10159 28922 ft 432 kts 210°
2026-05-06 19:31 40.40787 24.08530 28463 ft 428 kts 210°
2026-05-06 19:31 40.38095 24.06921 28008 ft 423 kts 210°
2026-05-06 19:31 40.32792 24.03755 27130 ft 415 kts 209°
2026-05-06 19:32 40.30182 24.02198 26714 ft 411 kts 209°
2026-05-06 19:32 40.27588 24.00652 26294 ft 408 kts 209°
2026-05-06 19:32 40.25007 23.99116 25870 ft 406 kts 209°
2026-05-06 19:32 40.22440 23.97588 25448 ft 404 kts 209°
2026-05-06 19:33 40.19886 23.96069 25023 ft 403 kts 209°
2026-05-06 19:33 40.17338 23.94554 24593 ft 401 kts 209°
2026-05-06 19:33 40.14804 23.93048 24159 ft 400 kts 209°
2026-05-06 19:33 40.12270 23.91542 23708 ft 399 kts 209°
2026-05-06 19:34 40.09742 23.90045 23223 ft 398 kts 209°
2026-05-06 19:34 40.07228 23.88558 22761 ft 396 kts 209°
2026-05-06 19:34 40.04726 23.87081 22301 ft 393 kts 209°
2026-05-06 19:34 40.02244 23.85617 21850 ft 391 kts 208°
2026-05-06 19:35 39.99773 23.84159 21395 ft 388 kts 208°
2026-05-06 19:35 39.97323 23.82716 20940 ft 386 kts 208°
2026-05-06 19:35 39.94884 23.81280 20488 ft 383 kts 208°
2026-05-06 19:35 39.92466 23.79858 20037 ft 381 kts 208°
2026-05-06 19:36 39.90056 23.78442 19586 ft 378 kts 208°
2026-05-06 19:36 39.87663 23.77036 19133 ft 376 kts 208°
2026-05-06 19:36 39.85289 23.75637 18692 ft 374 kts 208°
2026-05-06 19:36 39.82927 23.74245 18226 ft 372 kts 208°
2026-05-06 19:37 39.80577 23.72863 17760 ft 369 kts 207°
2026-05-06 19:37 39.78253 23.71498 17322 ft 365 kts 207°
2026-05-06 19:37 39.75954 23.70151 16886 ft 361 kts 207°
2026-05-06 19:37 39.74439 23.69265 16602 ft 359 kts 207°
2026-05-06 19:38 39.71445 23.67518 16026 ft 354 kts 207°
2026-05-06 19:38 39.69211 23.66215 15603 ft 350 kts 207°
2026-05-06 19:38 39.66999 23.64922 15186 ft 347 kts 207°
2026-05-06 19:38 39.64803 23.63640 14767 ft 344 kts 206°
2026-05-06 19:39 39.62631 23.62372 14358 ft 342 kts 206°
2026-05-06 19:39 39.60468 23.61113 13955 ft 339 kts 206°
2026-05-06 19:39 39.58320 23.59863 13510 ft 337 kts 206°
2026-05-06 19:39 39.56195 23.58628 13140 ft 332 kts 206°
2026-05-06 19:40 39.54123 23.57427 12998 ft 320 kts 206°
2026-05-06 19:40 39.52138 23.56276 12688 ft 307 kts 206°
2026-05-06 19:40 39.50202 23.55151 12158 ft 303 kts 206°
2026-05-06 19:40 39.48289 23.54037 11633 ft 300 kts 206°
2026-05-06 19:41 39.46392 23.52933 11251 ft 299 kts 205°
2026-05-06 19:41 39.44492 23.51834 10882 ft 298 kts 203°
2026-05-06 19:41 39.42492 23.51130 10529 ft 299 kts 188°
2026-05-06 19:41 39.40413 23.51116 10130 ft 300 kts 172°
2026-05-06 19:42 39.38389 23.51785 9660 ft 303 kts 159°
2026-05-06 19:42 39.36412 23.52753 9123 ft 305 kts 159°
2026-05-06 19:42 39.34414 23.53725 8613 ft 308 kts 160°
2026-05-06 19:42 39.32401 23.54697 8109 ft 310 kts 160°
2026-05-06 19:43 39.30374 23.55672 7610 ft 311 kts 160°
2026-05-06 19:43 39.28340 23.56647 7121 ft 313 kts 160°
2026-05-06 19:43 39.26310 23.57620 6839 ft 306 kts 160°
2026-05-06 19:43 39.24352 23.58564 6705 ft 294 kts 160°
2026-05-06 19:44 39.22504 23.59455 6572 ft 272 kts 160°
2026-05-06 19:44 39.20790 23.60282 6252 ft 256 kts 160°
2026-05-06 19:44 39.19117 23.60864 5843 ft 245 kts 175°
2026-05-06 19:44 39.17436 23.60816 5254 ft 241 kts 192°
2026-05-06 19:45 39.15854 23.60161 4655 ft 238 kts 208°
2026-05-06 19:45 39.14393 23.59193 4040 ft 235 kts 208°
2026-05-06 19:45 39.12943 23.58240 3489 ft 232 kts 207°
2026-05-06 19:45 39.11533 23.57317 3217 ft 221 kts 207°
2026-05-06 19:46 39.10208 23.56455 3002 ft 209 kts 206°
2026-05-06 19:46 39.08929 23.55625 2786 ft 203 kts 206°
2026-05-06 19:46 39.07674 23.54811 2591 ft 201 kts 206°
2026-05-06 19:46 39.06423 23.53998 2534 ft 202 kts 206°
2026-05-06 19:47 39.05171 23.53181 2542 ft 202 kts 206°
2026-05-06 19:47 39.03921 23.52363 2544 ft 202 kts 206°
2026-05-06 19:47 39.02714 23.51459 2487 ft 200 kts 220°
2026-05-06 19:47 39.02018 23.49960 2160 ft 197 kts 257°
2026-05-06 19:48 39.02127 23.48274 1946 ft 189 kts 290°
2026-05-06 19:48 39.02937 23.46969 1667 ft 190 kts 326°
2026-05-06 19:48 39.04197 23.46464 1636 ft 194 kts 358°
2026-05-06 19:48 39.05539 23.46444 1757 ft 194 kts 359°
2026-05-06 19:49 39.06892 23.46420 1826 ft 195 kts 359°
2026-05-06 19:49 39.08256 23.46454 1792 ft 196 kts
2026-05-06 19:49 39.09531 23.46768 1811 ft 175 kts 18°
2026-05-06 19:49 39.10658 23.47250 1889 ft 167 kts 20°
2026-05-06 19:50 39.11729 23.47760 1747 ft 162 kts 21°
2026-05-06 19:50 39.12791 23.48240 1492 ft 161 kts 20°
2026-05-06 19:50 39.13842 23.48686 1124 ft 158 kts 18°
2026-05-06 19:50 39.14882 23.49122 713 ft 156 kts 19°
2026-05-06 19:51 39.15900 23.49570 328 ft 153 kts 17°
2026-05-06 19:51 39.16901 23.49993 68 ft 151 kts 18°
2026-05-06 19:51 39.17786 23.50391 40 ft 103 kts 19°
2026-05-06 19:51 39.18174 23.50565 51 ft 15 kts 19°
2026-05-06 19:52 39.18197 23.50575 53 ft 16 kts 19°
2026-05-06 19:52 39.18353 23.50642 57 ft 20 kts 18°
2026-05-06 19:52 39.18417 23.50669 58 ft 2 kts 92°
2026-05-06 19:52 39.18406 23.50666 60 ft 3 kts 200°
2026-05-06 19:53 39.18373 23.50651 60 ft 7 kts 199°
2026-05-06 19:53 39.18312 23.50624 55 ft 11 kts 199°
2026-05-06 19:53 39.18230 23.50587 55 ft 15 kts 199°
2026-05-06 19:53 39.18117 23.50538 48 ft 20 kts 199°
2026-05-06 19:54 39.17987 23.50481 45 ft 18 kts 198°
2026-05-06 19:54 39.17917 23.50360 42 ft 15 kts 246°
2026-05-06 19:54 39.17904 23.50276 47 ft 3 kts 286°
2026-05-06 19:54 39.17905 23.50271 47 ft 0 kts 289°
2026-05-06 19:55 39.17906 23.50271 47 ft 0 kts 289°
2026-05-06 19:55 39.17915 23.50233 52 ft 0 kts 288°